Weather History for Bentonville, AR

Change the Weather History Date:

Thursday, March 8, 2012

  Actual Average Record
Temperature  
Mean Temperature 50 °F -  
Max Temperature 64 °F 58 °F 77 °F (1992)
Min Temperature 35 °F 32 °F 7 °F (1989)
Degree Days  
Heating Degree Days 16    
Moisture  
Dew Point 39 °F    
Average Humidity 78    
Maximum Humidity 88    
Minimum Humidity 65    
Precipitation  
Precipitation 0.26 in - - ()
Sea Level Pressure  
Sea Level Pressure 30.15 in    
Wind  
Wind Speed 10 mph (NNE)    
Max Wind Speed 23 mph    
Max Gust Speed 31 mph    
Visibility 10 miles    
Events Thunderstorm    
Averages and records for this station are not official NWS values.
T = Trace of Precipitation, MM = Missing Value Source: NWS Daily Summary

Daily Weather History Graph

Daily Weather History Graph

Search for Another Location

Airport:

Trip Planner

Search our weather history database for the weather conditions in past years. The results will help you decide how hot, cold, wet, or windy it might be!

Date:

Astronomy

Mar. 08, 2012 Rise Set
Actual Time 6:36 AM CST 6:18 PM CST
Civil Twilight 6:11 AM CST 6:44 PM CST
Nautical Twilight 5:41 AM CST 7:14 PM CST
Astronomical Twilight 5:11 AM CST 7:44 PM CST
Moon 7:03 PM CST (3/8) 6:23 AM CST (3/8)
Length of Visible Light 12h 32m
Length of Day
11h 41m
Full, 100% of the Moon is Illuminated
Mar 8
Full
Mar 14
Last Quarter
Mar 22
New
Mar 30
First Quarter
Apr 6
Full

Hourly Weather History & Observations

Time (CST) Temp. Windchill Dew Point Humidity Pressure Visibility Wind Dir Wind Speed Gust Speed Precip Events Conditions
12:15 AM 64.4 °F - 53.6 °F 68% 29.96 in 10.0 mi South 5.8 mph - N/A   Overcast
12:35 AM 64.4 °F - 53.6 °F 68% 29.96 in 10.0 mi South 6.9 mph - N/A   Overcast
12:55 AM 64.4 °F - 53.6 °F 68% 29.96 in 10.0 mi SSW 5.8 mph - N/A   Overcast
1:15 AM 62.6 °F - 53.6 °F 72% 29.96 in 10.0 mi South 5.8 mph - N/A   Overcast
1:35 AM 62.6 °F - 53.6 °F 72% 29.97 in 10.0 mi SSW 3.5 mph - N/A   Overcast
2:35 AM 62.6 °F - 53.6 °F 72% 29.97 in 10.0 mi Calm Calm - N/A   Overcast
2:55 AM 62.6 °F - 53.6 °F 72% 29.98 in 10.0 mi Calm Calm - N/A   Overcast
3:15 AM 62.6 °F - 53.6 °F 72% 29.98 in 10.0 mi SSW 3.5 mph - N/A   Overcast
3:35 AM 60.8 °F - 55.4 °F 82% 29.98 in 10.0 mi SSW 3.5 mph - N/A   Overcast
3:55 AM 62.6 °F - 55.4 °F 77% 29.98 in 10.0 mi South 4.6 mph - N/A   Overcast
4:15 AM 62.6 °F - 55.4 °F 77% 29.99 in 10.0 mi SSW 5.8 mph - N/A   Overcast
4:35 AM 62.6 °F - 55.4 °F 77% 29.99 in 10.0 mi SW 4.6 mph - N/A   Overcast
4:55 AM 60.8 °F - 55.4 °F 82% 30.00 in 10.0 mi Calm Calm - N/A   Overcast
5:15 AM 60.8 °F - 55.4 °F 82% 30.01 in 10.0 mi North 10.4 mph - N/A   Overcast
5:35 AM 55.4 °F - 51.8 °F 88% 30.03 in 8.0 mi North 23.0 mph - N/A   Overcast
5:55 AM 48.2 °F - 42.8 °F 82% 30.04 in 5.0 mi North 16.1 mph 21.9 mph N/A   Overcast
6:15 AM 46.4 °F 38.7 °F 42.8 °F 87% 30.05 in 6.0 mi North 20.7 mph 26.5 mph N/A   Overcast
6:35 AM 44.6 °F 36.4 °F 41.0 °F 87% 30.08 in 9.0 mi North 20.7 mph 28.8 mph N/A   Overcast
6:55 AM 44.6 °F 36.1 °F 39.2 °F 81% 30.09 in 10.0 mi North 21.9 mph 27.6 mph N/A   Overcast
7:15 AM 42.8 °F 34.8 °F 37.4 °F 81% 30.10 in 10.0 mi North 17.3 mph 24.2 mph N/A   Overcast
7:35 AM 42.8 °F 34.3 °F 37.4 °F 81% 30.11 in 10.0 mi North 19.6 mph 31.1 mph N/A   Overcast
7:55 AM 42.8 °F 35.1 °F 37.4 °F 81% 30.12 in 10.0 mi NNE 16.1 mph 23.0 mph N/A   Overcast
8:15 AM 42.8 °F 35.4 °F 37.4 °F 81% 30.13 in 10.0 mi NNE 15.0 mph 27.6 mph N/A   Overcast
8:35 AM 42.8 °F 34.3 °F 37.4 °F 81% 30.17 in 10.0 mi North 19.6 mph 26.5 mph N/A   Overcast
8:55 AM 42.8 °F 34.5 °F 37.4 °F 81% 30.16 in 10.0 mi North 18.4 mph - N/A   Overcast
9:15 AM 41.0 °F 33.5 °F 35.6 °F 81% 30.21 in 10.0 mi NNE 13.8 mph 24.2 mph 0.01 in   Overcast
9:35 AM 39.2 °F 29.8 °F 35.6 °F 87% 30.19 in 5.0 mi NNE 18.4 mph 21.9 mph 0.14 in   Overcast
9:55 AM 39.2 °F 32.0 °F 35.6 °F 87% 30.20 in 9.0 mi NNE 11.5 mph 26.5 mph 0.19 in   Overcast
10:15 AM 39.2 °F 29.8 °F 35.6 °F 87% 30.17 in 10.0 mi NNE 18.4 mph 29.9 mph 0.03 in   Overcast
10:35 AM 39.2 °F 33.0 °F 35.6 °F 87% 30.23 in 10.0 mi NNE 9.2 mph 18.4 mph 0.03 in   Overcast
10:55 AM 39.2 °F 30.5 °F 35.6 °F 87% 30.24 in 10.0 mi North 16.1 mph 20.7 mph 0.03 in   Overcast
11:15 AM 39.2 °F 31.2 °F 35.6 °F 87% 30.24 in 10.0 mi North 13.8 mph 18.4 mph N/A   Overcast
11:35 AM 39.2 °F 29.6 °F 35.6 °F 87% 30.24 in 10.0 mi NNE 19.6 mph 24.2 mph N/A   Overcast
11:55 AM 39.2 °F 29.8 °F 33.8 °F 81% 30.17 in 10.0 mi NNE 18.4 mph 31.1 mph 0.01 in   Overcast
12:15 PM 37.4 °F - 33.8 °F 87% 30.27 in 10.0 mi Calm Calm - 0.01 in Thunderstorm Mostly Cloudy
12:35 PM 39.2 °F 32.0 °F 35.6 °F 87% 30.28 in 10.0 mi NNE 11.5 mph 16.1 mph 0.02 in   Overcast
12:55 PM 39.2 °F 33.0 °F 33.8 °F 81% 30.27 in 10.0 mi NE 9.2 mph - 0.02 in   Overcast
1:15 PM 39.2 °F 32.0 °F 33.8 °F 81% 30.31 in 10.0 mi North 11.5 mph 19.6 mph N/A   Overcast
1:35 PM 39.2 °F 30.8 °F 33.8 °F 81% 30.30 in 10.0 mi NNE 15.0 mph - N/A   Mostly Cloudy
1:55 PM 37.4 °F 27.5 °F 32.0 °F 81% 30.28 in 10.0 mi NNE 18.4 mph 26.5 mph N/A   Overcast
2:15 PM 37.4 °F 28.9 °F 30.2 °F 75% 30.28 in 10.0 mi NE 13.8 mph - N/A   Overcast
2:35 PM 37.4 °F 28.2 °F 28.4 °F 70% 30.27 in 10.0 mi ENE 16.1 mph 24.2 mph N/A   Overcast
2:55 PM 37.4 °F 28.5 °F 28.4 °F 70% 30.31 in 10.0 mi ENE 15.0 mph 18.4 mph N/A   Overcast
3:15 PM 37.4 °F 28.5 °F 26.6 °F 65% 30.27 in 10.0 mi NE 15.0 mph 24.2 mph N/A   Overcast
3:35 PM 37.4 °F 30.3 °F 28.4 °F 70% 30.29 in 10.0 mi NNE 10.4 mph 20.7 mph N/A   Overcast
3:55 PM 37.4 °F 28.9 °F 26.6 °F 65% 30.28 in 10.0 mi NNE 13.8 mph 19.6 mph N/A   Overcast
4:15 PM 37.4 °F 28.5 °F 28.4 °F 70% 30.32 in 10.0 mi North 15.0 mph 19.6 mph N/A   Overcast
4:35 PM 35.6 °F 26.6 °F 28.4 °F 75% 30.31 in 10.0 mi NNE 13.8 mph 19.6 mph 0.01 in   Overcast
4:55 PM 35.6 °F 27.5 °F 28.4 °F 75% 30.29 in 10.0 mi NNE 11.5 mph 24.2 mph 0.01 in Thunderstorm Overcast
5:15 PM 37.4 °F 30.8 °F 28.4 °F 70% 30.34 in 10.0 mi NNE 9.2 mph - N/A Thunderstorm Overcast
5:35 PM 37.4 °F 27.5 °F 28.4 °F 70% 30.29 in 10.0 mi NNE 18.4 mph - N/A   Overcast
5:55 PM 37.4 °F 29.3 °F 28.4 °F 70% 30.27 in 10.0 mi NNE 12.7 mph 20.7 mph N/A   Scattered Clouds
6:15 PM 37.4 °F 30.8 °F 28.4 °F 70% 30.27 in 10.0 mi NE 9.2 mph 16.1 mph N/A   Scattered Clouds
6:35 PM 37.4 °F 29.8 °F 28.4 °F 70% 30.30 in 10.0 mi NE 11.5 mph - N/A   Scattered Clouds
6:55 PM 37.4 °F 30.8 °F 28.4 °F 70% 30.33 in 10.0 mi NE 9.2 mph 16.1 mph N/A   Clear
7:15 PM 37.4 °F 30.8 °F 28.4 °F 70% 30.37 in 10.0 mi North 9.2 mph - N/A   Clear
7:35 PM 37.4 °F 32.8 °F 28.4 °F 70% 30.39 in 10.0 mi North 5.8 mph - N/A   Clear
7:55 PM 37.4 °F 31.4 °F 28.4 °F 70% 30.37 in 10.0 mi NNE 8.1 mph - N/A   Clear
8:15 PM 37.4 °F 31.4 °F 28.4 °F 70% 30.36 in 10.0 mi NE 8.1 mph - N/A   Clear
8:35 PM 37.4 °F 33.8 °F 28.4 °F 70% 30.38 in 10.0 mi NNE 4.6 mph - N/A   Clear
8:55 PM 35.6 °F 30.7 °F 28.4 °F 75% 30.40 in 10.0 mi NNE 5.8 mph - N/A   Clear
9:15 PM 35.6 °F 31.7 °F 28.4 °F 75% 30.41 in 10.0 mi North 4.6 mph - N/A   Clear
9:35 PM 35.6 °F 32.8 °F 28.4 °F 75% 30.41 in 10.0 mi North 3.5 mph - N/A   Clear
9:55 PM 33.8 °F 29.6 °F 28.4 °F 81% 30.42 in 10.0 mi NNE 4.6 mph - N/A   Clear
10:15 PM 33.8 °F - 28.4 °F 81% 30.43 in 10.0 mi Calm Calm - N/A   Clear
10:35 PM 33.8 °F 30.8 °F 28.4 °F 81% 30.44 in 10.0 mi North 3.5 mph - N/A   Clear
10:55 PM 33.8 °F 30.8 °F 28.4 °F 81% 30.44 in 10.0 mi North 3.5 mph - N/A   Clear
11:15 PM 33.8 °F 29.6 °F 28.4 °F 81% 30.45 in 10.0 mi North 4.6 mph - N/A   Clear
11:35 PM 33.8 °F 28.6 °F 26.6 °F 75% 30.46 in 10.0 mi North 5.8 mph - N/A   Clear
11:55 PM 32.0 °F 23.6 °F 26.6 °F 80% 30.44 in 10.0 mi North 10.4 mph - N/A   Clear